Regional Weather Roundup
Issued by NWS Newport/Morehead, NC

Current Version | Previous Version | Text Only | Print | Product List | Glossary On
Versions: 1 2 3 4 5 6 7 8 9 10 11 12 13 14 15 16 17 18 19 20 21 22 23 24 25 26 27 28 29 30 31 32 33 34 35 36 37 38 39 40 41 42 43 44 45 46 47 48 49 50
000
ASUS42 KMHX 291513
RWRMHX
WEATHER ROUNDUP FOR EASTERN NORTH CAROLINA
NATIONAL WEATHER SERVICE NEWPORT/MOREHEAD CITY NC
1100 AM EDT FRI MAY 29 2015

NOTE: "FAIR" INDICATES FEW OR NO CLOUDS BELOW 12,000 FEET
WITH NO SIGNIFICANT WEATHER AND/OR OBSTRUCTIONS TO VISIBILITY

NCZ015>017-031-032-045>047-102-103-291600-
NORTH COAST

CITY           SKY/WX    TMP DP  RH WIND       PRES   REMARKS
EDENTON        SUNNY     78  62  57 CALM      30.26S
ELIZABETH CITY SUNNY     79  67  66 E7        30.26S
KITTY HAWK     SUNNY     76  64  65 NE7       30.27R
MANTEO         SUNNY     76  66  69 NE8       30.27S

$$

NCZ045>047-081-094-103-104-291600-
CENTRAL COAST

CITY           SKY/WX    TMP DP  RH WIND       PRES   REMARKS
FRISCO         PTSUNNY   80  66  62 SE8       30.26S
SWANQUARTER      N/A     81 N/A N/A SE6       30.24S

$$

NCZ095-097-098-100-101-291600-
SOUTHERN COAST

CITY           SKY/WX    TMP DP  RH WIND       PRES   REMARKS
BEAUFORT       PTSUNNY   80  66  62 E10       30.26R
CEDAR ISLAND     N/A     77 N/A N/A NE7       30.30S
JACKSONVILLE   SUNNY     79  62  56 VRB5      30.25S
PINEY ISLAND   SUNNY    N/A N/A N/A NE8       30.26S
WILMINGTON     SUNNY     80  64  58 E8        30.24S


$$

NCZ011>013-027>030-043-044-078>080-089-090>093-098-291600-
COASTAL PLAIN

CITY           SKY/WX    TMP DP  RH WIND       PRES   REMARKS
AHOSKIE        SUNNY     77  64  64 CALM      30.26S
CLINTON        SUNNY     79  64  60 S3        30.26S
ELIZABETHTOWN  SUNNY     79  63  57 CALM      30.25S
GOLDSBORO      SUNNY     80  63  56 CALM      30.23F
GREENVILLE     SUNNY     81  59  47 NE3       30.26S
HAVELOCK       MOSUNNY   82  61  48 VRB7      30.26F
KENANSVILLE    SUNNY     78  58  50 CALM      30.26F
KINSTON        SUNNY     79  57  47 CALM      30.26F
NEW BERN       SUNNY     80  62  54 E5        30.26F
RICHLANDS      SUNNY     81  61  50 CALM      30.26S
ROCKY MOUNT    SUNNY     80  65  59 SE7       30.26S
WASHINGTON     SUNNY     78  62  56 E6        30.26F
WHITEVILLE     SUNNY     79  64  59 NE6       30.25R

$$

AMZ130-135-150-152-154-156-158-170-250-252-270-ANZ085-086-088-633-658-670-291600-
MARINE OBSERVATIONS

STATION/POSITION TIME  TEMP    WIND        PRES    WAVE   SWELL
                       AIR SEA DIR/SP/G            HT/PER HT/PER
                 (UTC) (F)     (DEG/KT/KT) (MB)    (FT/S) (FT/S)
CHESAPEAKE LIGHT 1400   67     170/  4/  5 1025.6
64 E VA BEACH    1450   69 66   80/  4/  6 1025.1    3/ 9   3/ 9
DUCK             1400   72 54  100/  7/  7 1024.0
2 E DUCK         1411      66                N/A     2/ 9
OREGON INLET     1400   74 77   50/  7/  9 1024.8
13E OREGON INLT  1500      74                N/A     3/ 9
HATTERAS CG      1400   76 76   40/  6/ 10 1024.2
DIAMOND BUOY     1450   75 76   40/ 10/ 12 1024.7    3/ 9   3/ 9
CAPE LOOKOUT     1500   75      50/  9/ 10 1024.4
BEAUFORT LAB     1400   77 76   10/  6/  9 1023.6
27 SE WRIGHTSVLE NOT AVBL
5 SE WRIGHTSVLE  1408   76 77   70/ 10/ 14 1024.1
225 S CAPE HAT   1450   75 74   80/ 16/ 19 1022.7    6/ 9   3/ 9
41 SE CHARLESTON 1450   76 78   30/ 10/ 12 1022.9    4/ 8   3/ 8

$$


USA.gov is the U.S. government's official web portal to all federal, state and local government web resources and services.